Flag for Sweden Weather past 2 weeks in Västerås, Sweden

Now
54 °F

Passing clouds.


Feels Like: 50 °F
Forecast: 43 / 56 °F
Wind: 10 mph from Southwest

Location: Vasteras / Hasslo

Current Time: May 24, 2015 at 11:33:22 PM

Latest Report: May 24, 2015 at 10:50 PM


Visibility: N/A

Pressure: 29.86 "Hg

Humidity: 67%

Dew point: 43 °F

Location of VästeråsLocation

Historic Weather in Västerås — Graph

°F

Västerås temperature yesterday

Maximum temperature yesterday: 61 °F (at 3:50 PM)
Minimum temperature yesterday: 46 °F (at 4:20 AM)
Average temperature yesterday: 53 °F

Past Weeks' High & Low Weather Summary

 TemperatureHumidityPressure
High63 °F (May 11, 2:20 PM)100% (May 10, 5:20 AM)30.18 "Hg (May 10, 5:20 AM)
Low30 °F (May 11, 4:50 AM)25% (May 23, 6:50 PM)29.42 "Hg (May 13, 3:20 AM)
Average49 °F71%29.82 "Hg
* Reported May 9 10:20 PM — May 24 10:20 PM, Västerås, Weather by CustomWeather, © 2015

Note: Actual official high and low records may vary slightly from our data, if they occured in-between our weather recording intervals... More about our weather records

Advertising

Västerås weather history for previous 24 hours

 ConditionsComfort  
Time TempWeatherWind HumidityBarometerVisibility
10:20 PM
Sun, May 24
54 °FPassing clouds.10 mph63%29.86 "HgN/A
9:50 PM54 °FPassing clouds.12 mph58%29.86 "HgN/A
9:20 PM55 °FPassing clouds.10 mph51%29.86 "HgN/A
8:50 PM57 °FRefreshingly cool.12 mph39%29.86 "HgN/A
8:20 PM59 °FScattered clouds.12 mph42%29.86 "HgN/A
7:50 PM59 °FRefreshingly cool.9 mph48%29.86 "HgN/A
7:20 PM59 °FRefreshingly cool.10 mph48%29.86 "HgN/A
6:50 PM61 °FRefreshingly cool.9 mph45%29.86 "HgN/A
6:20 PM61 °FRefreshingly cool.10 mph42%29.86 "HgN/A
5:50 PM63 °FPassing clouds.10 mph39%29.89 "HgN/A
5:20 PM61 °FRefreshingly cool.9 mph34%29.89 "HgN/A
4:50 PM61 °FRefreshingly cool.13 mph39%29.89 "HgN/A
4:20 PM61 °FPassing clouds.12 mph45%29.89 "HgN/A
3:50 PM61 °FPassing clouds.12 mph45%29.89 "HgN/A
3:20 PM61 °FPassing clouds.10 mph45%29.89 "HgN/A
2:50 PM61 °FSunny.13 mph42%29.92 "Hg10 mi
2:20 PM61 °FPassing clouds.10 mph48%29.92 "HgN/A
1:50 PM61 °FPassing clouds.8 mph48%29.92 "HgN/A
1:20 PM59 °FPassing clouds.8 mph55%29.92 "HgN/A
12:50 PM59 °FPassing clouds.8 mph55%29.92 "HgN/A
12:20 PM57 °FPassing clouds.8 mph55%29.92 "HgN/A
11:50 AM59 °FPassing clouds.5 mph51%29.92 "HgN/A
11:20 AM55 °FPassing clouds.5 mph59%29.92 "HgN/A
10:50 AM55 °FPassing clouds.7 mph55%29.92 "HgN/A
10:20 AM54 °FPassing clouds.6 mph58%29.92 "HgN/A
9:50 AM54 °FPassing clouds.3 mph58%29.92 "HgN/A
9:20 AM54 °FCool.3 mph58%29.92 "HgN/A
8:50 AM52 °FCool.2 mph62%29.92 "HgN/A
8:20 AM52 °FCool.2 mph58%29.92 "HgN/A
7:50 AM50 °FCool.2 mph62%29.92 "HgN/A
7:20 AM48 °FCool.5 mph66%29.92 "HgN/A
6:50 AM48 °FCool.5 mph66%29.92 "HgN/A
6:20 AM46 °FCool.2 mph76%29.92 "HgN/A
5:50 AM43 °FQuite cool.3 mph81%29.92 "HgN/A
5:20 AM39 °FChilly.3 mph87%29.92 "HgN/A
4:50 AM39 °FChilly.2 mph81%29.92 "HgN/A
4:20 AM41 °FQuite cool.3 mph81%29.92 "HgN/A
3:50 AM41 °FQuite cool.3 mph81%29.92 "HgN/A
3:20 AM46 °FCool.3 mph71%29.92 "HgN/A
2:50 AM48 °FCool.6 mph66%29.92 "HgN/A
2:20 AM50 °FCool.6 mph62%29.92 "HgN/A
1:50 AM50 °FCool.8 mph62%29.92 "HgN/A
1:20 AM52 °FPassing clouds.10 mph58%29.92 "HgN/A
12:50 AM50 °FCool.9 mph62%29.92 "HgN/A
12:20 AM48 °FCool.8 mph62%29.92 "HgN/A
11:50 PM
Sat, May 23
50 °FPassing clouds.8 mph58%29.92 "HgN/A
11:20 PM52 °FPassing clouds.9 mph54%29.92 "HgN/A
Weather by CustomWeather, © 2015

See weather overviewHow to use our weather pages